Weather History for Sulphur, LA

Change the Weather History Date:

Friday, June 14, 2013

  Actual Average (KLCH) Record (KLCH)
Temperature  
Mean Temperature 84 °F 81 °F  
Max Temperature 95 °F 89 °F 101 °F (1911)
Min Temperature 73 °F 73 °F 56 °F (1913)
Degree Days  
Heating Degree Days 0 0  
Month to date heating degree days 0  
Since 1 June heating degree days 0  
Since 1 July heating degree days 1490  
Cooling Degree Days 18 16  
Month to date cooling degree days 211  
Year to date cooling degree days 749  
Since 1 June cooling degree days 211  
Growing Degree Days 34 (Base 50)    
Moisture  
Dew Point 77 °F    
Average Humidity 80    
Maximum Humidity 99    
Minimum Humidity 54    
Precipitation  
Precipitation 0.11 in 0.25 in 3.82 in (1977)
Month to date precipitation 2.95  
Year to date precipitation 23.83  
Snow  
Snow 0.00 in 0.00 in 0.00 in ()
Month to date snowfall 0.0  
Since 1 June snowfall 0.0  
Since 1 July snowfall 0.1  
Snow Depth -    
Sea Level Pressure  
Sea Level Pressure 29.94 in    
Wind  
Wind Speed 3 mph (West)    
Max Wind Speed 18 mph    
Max Gust Speed 24 mph    
Visibility 9 miles    
Events Rain , Thunderstorm    
T = Trace of Precipitation, MM = Missing Value Source: NWS Daily Summary

Daily Weather History Graph

Daily Weather History Graph

Search for Another Location

Airport:

Trip Planner

Search our weather history database for the weather conditions in past years. The results will help you decide how hot, cold, wet, or windy it might be!

Date:

Astronomy

Jun. 14, 2013 Rise Set
Actual Time 6:11 AM CDT 8:16 PM CDT
Civil Twilight 5:44 AM CDT 8:43 PM CDT
Nautical Twilight 5:10 AM CDT 9:17 PM CDT
Astronomical Twilight 4:35 AM CDT 9:52 PM CDT
Moon 11:26 AM CDT (6/14) No Moon Set
Length of Visible Light 14h 59m
Length of Day
14h 04m
Waxing Crescent, 30% of the Moon is Illuminated
Jun 14
Waxing Crescent
Jun 16
First Quarter
Jun 23
Full
Jun 29
Last Quarter
Jul 8
New

Hourly Weather History & Observations

Time (CDT) Temp. Heat Index Dew Point Humidity Pressure Visibility Wind Dir Wind Speed Gust Speed Precip Events Conditions
12:15 AM 80.1 °F 85.8 °F 77.0 °F 90% 29.96 in 10.0 mi Calm Calm - N/A   Clear
12:35 AM 79.7 °F - 77.0 °F 91% 29.95 in 10.0 mi Calm Calm - N/A   Clear
12:55 AM 79.7 °F - 77.0 °F 91% 29.96 in 10.0 mi Calm Calm - N/A   Clear
1:15 AM 79.2 °F - 77.0 °F 93% 29.96 in 10.0 mi West 3.5 mph - N/A   Clear
1:35 AM 78.8 °F - 76.6 °F 93% 29.96 in 10.0 mi Calm Calm - N/A   Clear
1:55 AM 78.8 °F - 77.0 °F 94% 29.96 in 10.0 mi Calm Calm - N/A   Clear
2:15 AM 78.3 °F - 76.6 °F 95% 29.96 in 10.0 mi Calm Calm - N/A   Clear
2:35 AM 77.7 °F - 76.5 °F 96% 29.95 in 10.0 mi Calm Calm - N/A   Clear
2:55 AM 77.5 °F - 76.5 °F 96% 29.95 in 7.0 mi Calm Calm - N/A   Clear
3:15 AM 77.9 °F - 77.0 °F 97% 29.94 in 7.0 mi Calm Calm - N/A   Clear
3:35 AM 77.9 °F - 76.8 °F 96% 29.94 in 10.0 mi Calm Calm - N/A   Clear
3:55 AM 77.9 °F - 77.0 °F 97% 29.94 in 7.0 mi Calm Calm - N/A   Clear
4:15 AM 78.1 °F - 77.2 °F 97% 29.94 in 7.0 mi Calm Calm - N/A   Clear
4:35 AM 77.9 °F - 77.2 °F 98% 29.94 in 5.0 mi Calm Calm - N/A   Clear
4:55 AM 77.5 °F - 77.0 °F 98% 29.95 in 7.0 mi Calm Calm - N/A   Clear
5:15 AM 77.0 °F - 76.1 °F 97% 29.96 in 5.0 mi Calm Calm - N/A   Clear
5:35 AM 77.0 °F - 76.3 °F 98% 29.97 in 4.0 mi Calm Calm - N/A   Clear
5:55 AM 77.4 °F - 77.0 °F 99% 29.97 in 2.5 mi Calm Calm - N/A   Clear
6:15 AM 76.5 °F - 76.1 °F 99% 29.98 in 7.0 mi Calm Calm - N/A   Clear
6:35 AM 76.5 °F - 76.1 °F 99% 29.97 in 7.0 mi Calm Calm - N/A   Clear
6:55 AM 77.7 °F - 77.2 °F 98% 29.98 in 5.0 mi Calm Calm - N/A   Clear
7:15 AM 78.6 °F - 78.1 °F 98% 29.97 in 5.0 mi Calm Calm - N/A   Clear
7:35 AM 80.1 °F 86.7 °F 79.0 °F 96% 29.97 in 10.0 mi West 4.6 mph - N/A   Clear
7:55 AM 81.5 °F 90.2 °F 78.8 °F 91% 29.97 in 10.0 mi West 6.9 mph - N/A   Clear
8:15 AM 82.4 °F 92.4 °F 79.0 °F 89% 29.97 in 10.0 mi West 8.1 mph - N/A   Scattered Clouds
8:35 AM 83.5 °F 95.1 °F 79.2 °F 87% 29.98 in 10.0 mi West 8.1 mph - N/A   Clear
8:55 AM 84.2 °F 96.1 °F 79.0 °F 84% 29.98 in 10.0 mi West 10.4 mph - N/A   Scattered Clouds
9:15 AM 85.3 °F 98.6 °F 79.2 °F 82% 29.98 in 10.0 mi WNW 8.1 mph - N/A   Scattered Clouds
9:35 AM 86.2 °F 99.8 °F 79.2 °F 79% 29.98 in 10.0 mi West 9.2 mph - N/A   Mostly Cloudy
9:55 AM 86.0 °F 99.8 °F 79.2 °F 80% 29.98 in 10.0 mi NW 8.1 mph - N/A   Mostly Cloudy
10:15 AM 87.1 °F 100.9 °F 78.8 °F 76% 29.98 in 10.0 mi West 8.1 mph - N/A   Scattered Clouds
10:35 AM 88.0 °F 103.1 °F 79.0 °F 75% 29.98 in 10.0 mi West 6.9 mph - N/A   Scattered Clouds
10:55 AM 89.2 °F 105.0 °F 79.0 °F 72% 29.98 in 10.0 mi WNW 4.6 mph - N/A   Scattered Clouds
11:15 AM 89.2 °F 103.1 °F 77.9 °F 69% 29.98 in 10.0 mi West 6.9 mph - N/A   Scattered Clouds
11:35 AM 90.5 °F 104.7 °F 77.9 °F 66% 29.98 in 10.0 mi West 6.9 mph - N/A   Scattered Clouds
11:55 AM 91.4 °F 105.8 °F 77.7 °F 64% 29.98 in 10.0 mi West 5.8 mph - N/A   Scattered Clouds
12:15 PM 90.0 °F 102.5 °F 77.0 °F 65% 29.97 in 10.0 mi West 5.8 mph - N/A   Mostly Cloudy
12:35 PM 91.4 °F 105.8 °F 77.5 °F 64% 29.96 in 10.0 mi West 5.8 mph - N/A   Mostly Cloudy
12:55 PM 92.1 °F 107.1 °F 77.7 °F 63% 29.95 in 10.0 mi West 6.9 mph - N/A   Scattered Clouds
1:15 PM 91.4 °F 103.1 °F 75.9 °F 60% 29.95 in 10.0 mi NW 5.8 mph - N/A   Scattered Clouds
1:35 PM 91.4 °F 103.1 °F 75.9 °F 60% 29.95 in 10.0 mi Calm Calm - N/A   Mostly Cloudy
1:55 PM 91.8 °F 104.1 °F 75.9 °F 60% 29.94 in 10.0 mi Calm Calm - N/A   Mostly Cloudy
2:15 PM 92.3 °F 104.1 °F 75.7 °F 58% 29.93 in 10.0 mi West 6.9 mph - N/A   Scattered Clouds
2:35 PM 91.8 °F 103.4 °F 75.7 °F 59% 29.93 in 10.0 mi Calm Calm - N/A   Mostly Cloudy
2:55 PM 91.9 °F 104.5 °F 76.1 °F 60% 29.93 in 10.0 mi WNW 3.5 mph - N/A   Mostly Cloudy
3:15 PM 93.0 °F 107.4 °F 77.4 °F 60% 29.93 in 10.0 mi West 3.5 mph - N/A   Mostly Cloudy
3:35 PM 92.5 °F 105.3 °F 76.5 °F 59% 29.92 in 10.0 mi West 5.8 mph - N/A   Scattered Clouds
3:55 PM 94.8 °F 108.5 °F 76.6 °F 55% 29.91 in 10.0 mi WNW 5.8 mph - N/A   Scattered Clouds
4:15 PM 94.8 °F 108.5 °F 76.1 °F 55% 29.91 in 10.0 mi West 4.6 mph - N/A Thunderstorm Scattered Clouds
4:35 PM 94.6 °F 107.2 °F 75.4 °F 54% 29.91 in 10.0 mi West 5.8 mph - N/A   Mostly Cloudy
4:55 PM 93.7 °F 105.7 °F 75.6 °F 55% 29.89 in 10.0 mi SSW 5.8 mph - N/A   Overcast
5:15 PM 91.8 °F 104.7 °F 76.6 °F 61% 29.89 in 10.0 mi South 12.7 mph - N/A   Overcast
5:35 PM 90.0 °F 103.2 °F 77.2 °F 66% 29.89 in 10.0 mi SSW 8.1 mph - N/A   Overcast
5:55 PM 89.6 °F 102.2 °F 76.8 °F 66% 29.89 in 10.0 mi SW 6.9 mph - N/A   Mostly Cloudy
6:15 PM 89.2 °F 103.1 °F 77.7 °F 69% 29.88 in 10.0 mi SSW 6.9 mph - N/A   Mostly Cloudy
6:35 PM 90.5 °F 105.3 °F 78.1 °F 67% 29.88 in 10.0 mi SSW 5.8 mph - N/A   Mostly Cloudy
6:55 PM 89.6 °F 102.8 °F 77.4 °F 67% 29.87 in 10.0 mi SW 6.9 mph - N/A   Scattered Clouds
7:15 PM 89.1 °F 102.6 °F 77.9 °F 69% 29.87 in 10.0 mi SW 4.6 mph - N/A   Scattered Clouds
7:35 PM 88.7 °F 101.6 °F 77.4 °F 69% 29.88 in 7.0 mi SW 5.8 mph - N/A   Clear
7:55 PM 87.3 °F 99.8 °F 77.5 °F 73% 29.90 in 10.0 mi SW 3.5 mph - N/A Thunderstorm Clear
8:15 PM 86.9 °F 98.8 °F 77.4 °F 73% 29.89 in 10.0 mi SW 6.9 mph - N/A Thunderstorm Clear
8:35 PM 85.6 °F 96.4 °F 77.0 °F 75% 29.91 in 10.0 mi SW 3.5 mph - N/A Thunderstorm Clear
8:55 PM 85.3 °F 96.3 °F 77.4 °F 77% 29.92 in 10.0 mi Calm Calm - N/A Thunderstorm Thunderstorm
9:15 PM 78.6 °F - 72.3 °F 81% 29.95 in 5.0 mi North 8.1 mph 20.7 mph 0.05 in Rain , Thunderstorm Light Thunderstorms and Rain
9:35 PM 76.1 °F - 72.0 °F 87% 29.99 in 7.0 mi ENE 13.8 mph 24.2 mph 0.08 in Rain , Thunderstorm Thunderstorms and Rain
9:55 PM 73.8 °F - 68.7 °F 84% 29.94 in 10.0 mi SSE 18.4 mph 23.0 mph 0.10 in Rain , Thunderstorm Light Thunderstorms and Rain
10:15 PM 75.2 °F - 70.9 °F 86% 29.96 in 10.0 mi SSW 3.5 mph - 0.01 in Rain , Thunderstorm Light Thunderstorms and Rain
10:35 PM 75.4 °F - 71.6 °F 88% 29.96 in 10.0 mi Calm Calm - 0.01 in Thunderstorm Clear
10:55 PM 74.5 °F - 72.1 °F 92% 29.97 in 10.0 mi North 9.2 mph - 0.01 in   Clear
11:15 PM 73.9 °F - 72.1 °F 94% 29.94 in 10.0 mi NW 8.1 mph - N/A   Light Drizzle
11:35 PM 73.8 °F - 72.0 °F 94% 29.93 in 10.0 mi NW 8.1 mph - N/A Rain , Thunderstorm Light Thunderstorms and Rain
11:55 PM 74.3 °F - 72.0 °F 92% 29.94 in 10.0 mi North 3.5 mph - N/A   Scattered Clouds